TimeCST,TemperatureF,Dew PointF,Humidity,Sea Level PressureIn,VisibilityMPH,Wind Direction,Wind SpeedMPH,Gust SpeedMPH,PrecipitationIn,Events,Conditions,WindDirDegrees,DateUTC
12:40 AM,39.2,35.6,87,30.11,2.5,Calm,Calm,-,N/A,,Partly Cloudy,0,2013-12-30 06:40:00
12:53 AM,39.2,35.6,87,30.11,2.0,Calm,Calm,-,N/A,,Mostly Cloudy,0,2013-12-30 06:53:00
12:56 AM,39.0,36.0,89,30.11,0.8,Calm,Calm,-,N/A,,Mist,0,2013-12-30 06:56:00
1:06 AM,39.2,37.4,93,30.11,1.2,Calm,Calm,-,N/A,,Overcast,0,2013-12-30 07:06:00
1:08 AM,39.2,37.4,93,30.11,2.0,Calm,Calm,-,N/A,,Overcast,0,2013-12-30 07:08:00
1:17 AM,39.2,37.4,93,30.11,3.0,Calm,Calm,-,N/A,,Overcast,0,2013-12-30 07:17:00
1:24 AM,39.2,35.6,87,30.11,1.8,Calm,Calm,-,N/A,,Overcast,0,2013-12-30 07:24:00
1:34 AM,39.2,35.6,87,30.11,3.0,Calm,Calm,-,N/A,,Mostly Cloudy,0,2013-12-30 07:34:00
1:47 AM,39.2,35.6,87,30.11,8.0,Calm,Calm,-,N/A,,Scattered Clouds,0,2013-12-30 07:47:00
1:56 AM,39.0,36.0,89,30.12,6.0,NW,3.5,-,N/A,,Scattered Clouds,320,2013-12-30 07:56:00
2:56 AM,39.9,37.0,89,30.11,9.0,Calm,Calm,-,N/A,,Clear,0,2013-12-30 08:56:00
3:56 AM,42.1,39.0,89,30.12,8.0,Calm,Calm,-,N/A,,Clear,0,2013-12-30 09:56:00
4:56 AM,39.0,36.0,89,30.13,4.0,Calm,Calm,-,N/A,,Clear,0,2013-12-30 10:56:00
5:56 AM,39.0,37.0,93,30.14,6.0,Calm,Calm,-,N/A,,Clear,0,2013-12-30 11:56:00
6:56 AM,39.9,37.0,89,30.17,5.0,Calm,Calm,-,N/A,,Clear,0,2013-12-30 12:56:00
7:56 AM,42.1,39.0,89,30.17,5.0,Calm,Calm,-,N/A,,Clear,0,2013-12-30 13:56:00
8:56 AM,45.0,42.1,90,30.19,9.0,Calm,Calm,-,N/A,,Clear,0,2013-12-30 14:56:00
9:56 AM,52.0,46.0,80,30.21,10.0,Calm,Calm,-,N/A,,Clear,0,2013-12-30 15:56:00
10:56 AM,55.0,48.0,77,30.20,10.0,Calm,Calm,-,N/A,,Clear,0,2013-12-30 16:56:00
11:56 AM,57.0,46.9,69,30.20,10.0,Calm,Calm,-,N/A,,Clear,0,2013-12-30 17:56:00
12:56 PM,57.0,45.0,64,30.17,10.0,Calm,Calm,-,N/A,,Clear,0,2013-12-30 18:56:00
1:56 PM,57.0,46.0,67,30.15,10.0,Calm,Calm,-,N/A,,Clear,0,2013-12-30 19:56:00
2:56 PM,57.0,46.9,69,30.17,10.0,Calm,Calm,-,N/A,,Partly Cloudy,0,2013-12-30 20:56:00
3:56 PM,55.0,48.0,77,30.15,10.0,Calm,Calm,-,N/A,,Scattered Clouds,0,2013-12-30 21:56:00
4:56 PM,54.0,48.9,83,30.17,10.0,Calm,Calm,-,N/A,,Clear,0,2013-12-30 22:56:00
5:56 PM,54.0,48.9,83,30.19,10.0,Calm,Calm,-,N/A,,Clear,0,2013-12-30 23:56:00
6:56 PM,52.0,48.0,86,30.20,10.0,Calm,Calm,-,N/A,,Clear,0,2013-12-31 00:56:00
7:56 PM,51.1,48.0,89,30.23,10.0,NNW,3.5,-,N/A,,Clear,330,2013-12-31 01:56:00
8:56 PM,52.0,48.0,86,30.25,10.0,Calm,Calm,-,N/A,,Clear,0,2013-12-31 02:56:00
9:56 PM,52.0,48.0,86,30.25,10.0,Calm,Calm,-,N/A,,Clear,0,2013-12-31 03:56:00
10:56 PM,50.0,46.9,89,30.25,9.0,North,3.5,-,N/A,,Clear,350,2013-12-31 04:56:00
11:56 PM,51.1,46.9,86,30.26,10.0,NNW,3.5,-,N/A,,Clear,330,2013-12-31 05:56:00